timestamp,surface_pressure_avg,surface_temp_avg,battery_voltage,lat,long
2021-10-05 00:09:01+00:00,350.6813,14.7,12.73,47.84626,-54.09684
2021-10-05 00:19:01+00:00,342.5046,14.69,12.73,47.84626,-54.09684
2021-10-05 00:29:01+00:00,333.7996,14.69,12.73,47.84626,-54.09684
2021-10-05 00:39:01+00:00,327.278,14.69,12.73,47.84626,-54.09684
2021-10-05 00:49:01+00:00,322.933,14.65,12.73,47.84626,-54.09684
2021-10-05 00:59:01+00:00,315.3363,14.68,12.73,47.84626,-54.09684
2021-10-05 01:09:01+00:00,305.998,14.69,12.73,47.84626,-54.09684
2021-10-05 01:19:01+00:00,298.938,14.7,12.73,47.84626,-54.09684
2021-10-05 01:29:01+00:00,293.2847,14.69,12.73,47.84626,-54.09684
2021-10-05 01:39:01+00:00,282.978,14.69,12.73,47.84626,-54.09684
2021-10-05 01:49:01+00:00,269.0164,14.67,12.73,47.84626,-54.09684
2021-10-05 01:59:01+00:00,260.8448,14.7,12.73,47.84626,-54.09684
2021-10-05 02:09:01+00:00,255.2464,14.7,12.73,47.84626,-54.09684
2021-10-05 02:19:00+00:00,243.9781,14.7,12.73,47.84626,-54.09684
2021-10-05 02:29:00+00:00,232.5182,14.7,12.73,47.84626,-54.09684
2021-10-05 02:39:00+00:00,228.7848,14.7,12.73,47.84626,-54.09684
2021-10-05 02:49:00+00:00,223.8598,14.7,12.73,47.84626,-54.09684
2021-10-05 02:59:00+00:00,216.2681,14.7,12.73,47.84626,-54.09684
2021-10-05 03:09:00+00:00,213.0382,14.7,12.73,47.84626,-54.09684
2021-10-05 03:19:01+00:00,213.7481,14.7,12.73,47.84626,-54.09684
2021-10-05 03:29:01+00:00,207.8031,14.7,12.73,47.84626,-54.09684
2021-10-05 03:39:01+00:00,200.5465,14.7,12.73,47.84626,-54.09684
2021-10-05 03:49:01+00:00,199.9082,14.6,12.73,47.84626,-54.09684
2021-10-05 03:59:01+00:00,199.4848,14.6,12.73,47.84626,-54.09684
2021-10-05 04:09:01+00:00,195.7064,14.6,12.73,47.84626,-54.09684
2021-10-05 04:19:00+00:00,193.2098,14.6,12.65,47.84626,-54.09684
2021-10-05 04:29:00+00:00,193.7865,14.59,12.65,47.84626,-54.09684
2021-10-05 04:39:00+00:00,195.0765,14.59,12.65,47.84626,-54.09684
2021-10-05 04:49:00+00:00,194.6848,14.6,12.65,47.84626,-54.09684
2021-10-05 04:59:00+00:00,195.0298,14.6,12.65,47.84626,-54.09684
2021-10-05 05:09:00+00:00,197.3248,14.6,12.65,47.84626,-54.09684
2021-10-05 05:19:00+00:00,199.4198,14.6,12.65,47.84626,-54.09684
2021-10-05 05:29:00+00:00,204.6181,14.58,12.65,47.84626,-54.09684
2021-10-05 05:39:00+00:00,207.3831,14.5,12.65,47.84626,-54.09684
2021-10-05 05:49:00+00:00,206.6931,14.5,12.65,47.84626,-54.09684
2021-10-05 05:59:00+00:00,209.2448,14.5,12.65,47.84626,-54.09684
2021-10-05 06:09:00+00:00,215.2115,14.5,12.65,47.84626,-54.09684
2021-10-05 06:19:00+00:00,219.0431,14.5,12.65,47.84626,-54.09684
2021-10-05 06:29:00+00:00,223.1864,14.5,12.65,47.84626,-54.09684
2021-10-05 06:39:00+00:00,231.0348,14.47,12.65,47.84626,-54.09684
2021-10-05 06:49:00+00:00,238.0148,14.44,12.65,47.84626,-54.09684
2021-10-05 06:59:00+00:00,242.2581,14.4,12.65,47.84626,-54.09684
2021-10-05 07:09:00+00:00,250.1731,14.4,12.65,47.84626,-54.09684
2021-10-05 07:19:01+00:00,259.5248,14.44,12.65,47.84626,-54.09684
2021-10-05 07:29:01+00:00,265.113,14.49,12.65,47.84626,-54.09684
2021-10-05 07:39:01+00:00,268.8781,14.3,12.65,47.84626,-54.09684
2021-10-05 07:49:01+00:00,276.1014,14.11,12.65,47.84626,-54.09684
2021-10-05 07:59:01+00:00,282.358,14.2,12.65,47.84626,-54.09684
2021-10-05 08:09:01+00:00,285.548,14.19,12.65,47.84626,-54.09684
2021-10-05 08:19:01+00:00,290.6214,14.1,12.65,47.84626,-54.09684
2021-10-05 08:29:01+00:00,300.0413,14.1,12.65,47.84626,-54.09684
2021-10-05 08:39:01+00:00,304.9097,14.0,12.65,47.84626,-54.09684
2021-10-05 08:49:01+00:00,308.9646,14.07,12.65,47.84626,-54.09684
2021-10-05 08:59:01+00:00,316.46299999999997,14.1,12.65,47.84626,-54.09684
2021-10-05 09:09:01+00:00,323.5881,14.04,12.65,47.84626,-54.09684
2021-10-05 09:19:01+00:00,328.5563,14.0,12.65,47.84626,-54.09684
2021-10-05 09:29:01+00:00,333.6964,14.0,12.65,47.84626,-54.09684
2021-10-05 09:39:01+00:00,338.2014,14.0,12.65,47.84626,-54.09684
2021-10-05 09:49:01+00:00,344.5946,14.04,12.65,47.84626,-54.09684
2021-10-05 09:59:01+00:00,349.9796,14.1,12.65,47.84626,-54.09684
2021-10-05 10:09:01+00:00,353.1612,14.25,12.65,47.84626,-54.09684
2021-10-05 10:19:01+00:00,352.5796,14.36,12.65,47.84626,-54.09684
2021-10-05 10:29:01+00:00,354.8229,14.33,12.65,47.84626,-54.09684
2021-10-05 10:39:01+00:00,355.5714,14.36,12.65,47.84626,-54.09684
2021-10-05 10:49:01+00:00,355.4796,14.36,12.65,47.84626,-54.09684
2021-10-05 10:59:01+00:00,357.56300000000016,14.37,12.65,47.84626,-54.09684
2021-10-05 11:09:01+00:00,356.3146,14.38,12.65,47.84626,-54.09684
2021-10-05 11:19:01+00:00,351.6912,14.35,13.13,47.84626,-54.09684
2021-10-05 11:29:01+00:00,350.0446,14.3,13.13,47.84626,-54.09684
2021-10-05 11:39:01+00:00,347.9996,14.2,13.13,47.84626,-54.09684
2021-10-05 11:49:01+00:00,342.3697,14.1,13.13,47.84626,-54.09684
2021-10-05 11:59:01+00:00,338.8230000000001,14.1,13.13,47.84626,-54.09684
2021-10-05 12:09:01+00:00,338.1463,14.12,13.13,47.84626,-54.09684
2021-10-05 12:19:01+00:00,333.4847,14.04,14.32,47.84626,-54.09684
2021-10-05 12:29:01+00:00,326.7663,14.1,14.32,47.84626,-54.09684
2021-10-05 12:39:01+00:00,326.1513,14.2,14.32,47.84626,-54.09684
2021-10-05 12:49:01+00:00,323.9214,14.3,14.32,47.84626,-54.09684
2021-10-05 12:59:01+00:00,314.6364,14.35,14.32,47.84626,-54.09684
2021-10-05 13:09:01+00:00,307.883,14.37,14.32,47.84626,-54.09684
2021-10-05 13:19:01+00:00,304.293,14.4,14.24,47.84626,-54.09684
2021-10-05 13:29:01+00:00,296.3613,14.3,14.24,47.84626,-54.09684
2021-10-05 13:39:01+00:00,285.1997,14.31,14.24,47.84626,-54.09684
2021-10-05 13:49:01+00:00,281.023,14.39,14.24,47.84626,-54.09684
2021-10-05 13:59:01+00:00,274.6197,14.37,14.24,47.84626,-54.09684
2021-10-05 14:09:01+00:00,260.4481,14.24,14.24,47.84626,-54.09684
2021-10-05 14:19:01+00:00,250.403,14.28,14.56,47.84626,-54.09684
2021-10-05 14:29:01+00:00,247.1547,14.3,14.56,47.84626,-54.09684
2021-10-05 14:39:01+00:00,236.4748,14.29,14.56,47.84626,-54.09684
2021-10-05 14:49:01+00:00,221.6864,14.29,14.56,47.84626,-54.09684
2021-10-05 14:59:01+00:00,217.7981,14.3,14.56,47.84626,-54.09684
2021-10-05 15:09:01+00:00,215.2631,14.3,14.56,47.84626,-54.09684
2021-10-05 15:19:01+00:00,204.9015,14.3,14.16,47.84626,-54.09684
2021-10-05 15:29:01+00:00,197.1748,14.3,14.16,47.84626,-54.09684
2021-10-05 15:39:01+00:00,197.8648,14.29,14.16,47.84626,-54.09684
2021-10-05 15:49:01+00:00,196.6998,14.29,14.16,47.84626,-54.09684
2021-10-05 15:59:01+00:00,192.2365,14.2,14.16,47.84626,-54.09684
2021-10-05 16:09:01+00:00,192.5731,14.2,14.16,47.84626,-54.09684
2021-10-05 16:19:01+00:00,192.9331,14.19,14.08,47.84626,-54.09684
2021-10-05 16:29:01+00:00,191.3415,14.19,14.08,47.84626,-54.09684
2021-10-05 16:39:01+00:00,191.5714,14.2,14.08,47.84626,-54.09684
2021-10-05 16:49:01+00:00,192.1064,14.18,14.08,47.84626,-54.09684
2021-10-05 16:59:01+00:00,189.5998,14.19,14.08,47.84626,-54.09684
2021-10-05 17:09:01+00:00,187.9164,14.17,14.08,47.84626,-54.09684
2021-10-05 17:19:01+00:00,191.4781,14.2,14.0,47.84626,-54.09684
2021-10-05 17:29:01+00:00,192.8981,14.21,14.0,47.84626,-54.09684
2021-10-05 17:39:01+00:00,192.7514,14.2,14.0,47.84626,-54.09684
2021-10-05 17:49:01+00:00,194.4948,14.2,14.0,47.84626,-54.09684
2021-10-05 17:59:01+00:00,198.4831,14.2,14.0,47.84626,-54.09684
2021-10-05 18:09:01+00:00,203.0548,14.2,14.0,47.84626,-54.09684
2021-10-05 18:19:01+00:00,205.9315,14.2,14.0,47.84626,-54.09684
2021-10-05 18:29:01+00:00,209.7631,14.2,14.0,47.84626,-54.09684
2021-10-05 18:39:01+00:00,214.1414,14.2,14.0,47.84626,-54.09684
2021-10-05 18:49:01+00:00,218.4114,14.2,14.0,47.84626,-54.09684
2021-10-05 18:59:01+00:00,224.6531,14.2,14.0,47.84626,-54.09684
2021-10-05 19:09:01+00:00,232.3064,14.19,14.0,47.84626,-54.09684
2021-10-05 19:19:01+00:00,241.7214,14.19,13.92,47.84626,-54.09684
2021-10-05 19:29:01+00:00,248.3814,14.18,13.92,47.84626,-54.09684
2021-10-05 19:39:01+00:00,252.8631,14.17,13.92,47.84626,-54.09684
2021-10-05 19:49:01+00:00,258.4114,14.1,13.92,47.84626,-54.09684
2021-10-05 19:59:01+00:00,267.6264,14.1,13.92,47.84626,-54.09684
2021-10-05 20:09:01+00:00,274.7547,14.1,13.92,47.84626,-54.09684
2021-10-05 20:19:01+00:00,280.3614,14.1,13.68,47.84626,-54.09684
2021-10-05 20:29:01+00:00,286.7048,14.1,13.68,47.84626,-54.09684
2021-10-05 20:39:01+00:00,294.993,14.1,13.68,47.84626,-54.09684
2021-10-05 20:49:01+00:00,300.0746,14.1,13.68,47.84626,-54.09684
2021-10-05 20:59:01+00:00,306.8297,14.1,13.68,47.84626,-54.09684
2021-10-05 21:09:01+00:00,315.0696,14.1,13.68,47.84626,-54.09684
2021-10-05 21:19:01+00:00,324.838,14.1,13.37,47.84626,-54.09684
2021-10-05 21:29:01+00:00,334.0747,14.1,13.37,47.84626,-54.09684
2021-10-05 21:39:01+00:00,343.2213,14.04,13.37,47.84626,-54.09684
2021-10-05 21:49:01+00:00,350.3629,14.07,13.37,47.84626,-54.09684
2021-10-05 21:59:01+00:00,357.2613,14.06,13.37,47.84626,-54.09684
2021-10-05 22:09:01+00:00,366.7596,14.0,13.37,47.84626,-54.09684
2021-10-05 22:19:01+00:00,372.8096,14.0,12.97,47.84626,-54.09684
2021-10-05 22:29:01+00:00,373.36300000000006,14.03,12.97,47.84626,-54.09684
2021-10-05 22:39:01+00:00,378.7697,14.04,12.97,47.84626,-54.09684
2021-10-05 22:49:01+00:00,384.8978,14.0,12.97,47.84626,-54.09684
2021-10-05 22:59:01+00:00,385.9728,14.0,12.97,47.84626,-54.09684
2021-10-05 23:09:01+00:00,384.9731,14.03,12.97,47.84626,-54.09684
2021-10-05 23:19:01+00:00,386.7764,14.01,12.73,47.84626,-54.09684
2021-10-05 23:29:01+00:00,388.7878,14.0,12.73,47.84626,-54.09684
2021-10-05 23:39:01+00:00,386.9845,14.0,12.73,47.84626,-54.09684
2021-10-05 23:49:01+00:00,385.3547,14.0,12.73,47.84626,-54.09684
2021-10-05 23:59:01+00:00,382.6445,14.0,12.73,47.84626,-54.09684
